Regional Weather Roundup
Issued by NWS Memphis, TN

Current Version | Previous Version | Text Only | Print | Product List | Glossary On
Versions: 1 2 3 4 5 6 7 8 9 10 11 12 13 14 15 16 17 18 19 20 21 22 23 24 25 26 27 28 29 30 31 32 33 34 35 36 37 38 39 40 41 42 43 44 45 46 47 48 49 50
466
ASUS44 KMEG 231310
RWRMEG
MEMPHIS CWA HOURLY WEATHER ROUNDUP
NATIONAL WEATHER SERVICE MEMPHIS TN
800 AM CDT SAT JUL 23 2016

...WEST TENNESSEE...

CITY           SKY/WX    TMP DP  RH WIND       PRES   REMARKS
MEMPHIS INTL   PTSUNNY   80  74  81 SW5       29.98S
NWS MEMPHIS      N/A     77 N/A N/A MISG        N/A
JACKSON        MOSUNNY   78  74  87 S5        30.01R
LEXINGTON      SUNNY     77  73  88 CALM      30.00S
DYERSBURG      CLOUDY    75  72  88 MISG      29.99S
UNION CITY     SUNNY     75  75 100 CALM      29.99R
PARIS          SUNNY     75  72  88 SE3       30.02R


...EASTERN ARKANSAS...

CITY           SKY/WX    TMP DP  RH WIND       PRES   REMARKS
JONESBORO      SUNNY     82  75  79 MISG      29.97R
WEST MEMPHIS   PTSUNNY   80  76  87 S6        29.96F
BATESVILLE     SUNNY     79  73  83 CALM      29.99R
NEWPORT        SUNNY     81  78  90 CALM      29.99R
WALNUT RIDGE   SUNNY     81  75  83 CALM      29.98R
BLYTHEVILLE    CLOUDY    79  75  87 SE3       29.98S
SEARCY         SUNNY     83  78  85 CALM      30.00R HX  93
STUTTGART      SUNNY     82  75  78 S5        29.98S
PINE BLUFF     SUNNY     79  76  90 S3        29.99R
MONTICELLO     SUNNY     82  76  81 CALM      29.99S


...NORTH MISSISSIPPI...

CITY           SKY/WX    TMP DP  RH WIND       PRES   REMARKS
TUPELO         CLOUDY    81  71  71 SE5       30.01F
OXFORD         CLOUDY    75  72  88 SE5       30.04R
BATESVILLE     CLOUDY    78  74  88 CALM      30.01S
OLIVE BRANCH   PTSUNNY  N/A N/A N/A S5        29.98S
TUNICA         CLOUDY    79  75  89 SE6       29.99S
CLARKSDALE     PTSUNNY   81  81 100 SW5       29.99S HX  91
CORINTH        CLOUDY    77  75  94 S5        29.99F
GREENWOOD      MOSUNNY   78  72  81 S5        30.00S
COLUMBUS       CLOUDY    77  75  95 S3        30.01S
GOLDEN TRIANGL PTSUNNY   75  70  83 SE7       30.01R


...SOUTHEAST MISSOURI...

CITY           SKY/WX    TMP DP  RH WIND       PRES   REMARKS
KENNETT        CLOUDY    81  75  83 CALM      29.97R
WEST PLAINS    MOSUNNY   80  75  84 CALM      30.05S
POPLAR BLUFF   MOSUNNY   78  75  90 NE6       29.99R
CAPE GIRARDEAU MOSUNNY   77  75  93 CALM      29.99R FOG


...NORTHWEST ALABAMA...

CITY           SKY/WX    TMP DP  RH WIND       PRES   REMARKS
MUSCLE SHOALS  PTSUNNY   78  74  87 CALM      30.03S


...MIDDLE TENNESSEE...

CITY           SKY/WX    TMP DP  RH WIND       PRES   REMARKS
NASHVILLE      CLOUDY    79  73  82 CALM      30.02S
CLARKSVILLE    PTSUNNY   79  73  82 CALM      30.02R
COLUMBIA       SUNNY    N/A N/A N/A CALM      30.01S


...WESTERN KENTUCKY...

CITY           SKY/WX    TMP DP  RH WIND       PRES   REMARKS
PADUCAH        MOSUNNY   78  74  87 SE8       29.99R
FORT CAMPBELL  MOSUNNY   78  74  87 CALM      30.02R


...CENTRAL ARKANSAS...

CITY           SKY/WX    TMP DP  RH WIND       PRES   REMARKS
LITTLE ROCK    SUNNY     85  76  74 W5        29.98R HX  94


SKY/WX REPORTED AS FAIR MEANS FEW OR NO CLOUDS BELOW
12 THOUSAND FEET.





USA.gov is the U.S. government's official web portal to all federal, state and local government web resources and services.